Regional Weather Roundup
Issued by NWS

Home | Current Version | Previous Version | Graphics & Text | Print | Product List | Glossary On
Versions: 1 2 3 4 5 6 7 8 9 10 11 12 13 14 15 16 17 18 19 20 21 22 23 24 25 26 27
000
ASUS45 KBOU 281507
RWRCO

WEATHER ROUNDUP FOR COLORADO
NATIONAL WEATHER SERVICE DENVER/BOULDER CO
900 AM MDT SAT MAY 28 2016

NOTE: "FAIR" INDICATES FEW OR NO CLOUDS BELOW 12000 FEET WITH NO
SIGNIFICANT WEATHER AND/OR OBSTRUCTIONS TO VISIBILITY.

COZ001>005-013-030-031-281600-
...NORTHWEST COLORADO...

CITY           SKY/WX    TMP DP  RH WIND       PRES   REMARKS
CRAIG          FAIR      53  41  63 NE8       30.11S
HAYDEN         FAIR      48  36  61 E10       30.12S
MEEKER         FAIR      49  36  61 CALM      30.13S
MOUNT WERNER   NOT AVBL
STEAMBOAT SPGS FAIR      46  37  71 CALM      30.14R
WALDEN         FAIR      50  36  57 S12       30.16S
$$

COZ006>008-011-281600-
...WEST CENTRAL VALLEYS...

CITY           SKY/WX    TMP DP  RH WIND       PRES   REMARKS
GRAND JUNCTION FAIR      56  41  57 SE7       30.09R
MONTROSE       FAIR      54  35  48 SW3       30.14R
EAGLE          SUNNY     45  37  76 CALM      30.19S
RIFLE          FAIR      52  37  56 CALM      30.13S
DELTA          FAIR      56  38  51 CALM      30.12S
NUCLA          FAIR      54  32  43 CALM      30.16R
$$

COZ017>023-064>068-281600-
...SOUTHWEST COLORADO...

CITY           SKY/WX    TMP DP  RH WIND       PRES   REMARKS
DURANGO        FAIR      52  35  52 CALM      30.15R
CORTEZ         FAIR      57  34  41 VRB3      30.11S
PAGOSA SPRINGS FAIR      51  34  52 CALM      30.20R
TELLURIDE      FAIR      46  31  54 SE3       30.25R
WOLF CREEK PAS FAIR      36  23  60 SW7       30.36S
$$

COZ009-010-012-014-032>034-037-058>063-281600-
...CENTRAL COLORADO...

CITY           SKY/WX    TMP DP  RH WIND       PRES   REMARKS
ASPEN          FAIR      48  30  49 CALM      30.17R
BUENA VISTA    FAIR      48  31  51 SE5       30.18S
COPPER MTN     NOT AVBL
BERTHOUD PASS  CLOUDY    27  16  63 NW16G22   30.29R WCI  14
COTTONWOOD PAS FAIR      46  30  53 CALM      30.24R
GUNNISON       FAIR      41  34  75 CALM      30.24S
KREMMLING      FAIR      41  34  75 CALM      30.20R
LEADVILLE      CLOUDY    39  30  70 N3        30.23R
MONARCH PASS   FAIR      30  28  93 W17G23    30.41R WCI  18
SALIDA         FAIR      49  34  55 N3        30.24R
SUNLIGHT       FAIR      39  32  75 CALM      30.31R
WILKERSON PASS FAIR      36  27  69 NW6       30.30R
$$

COZ069>075-281600-
...SAN LUIS VALLEY/SANGRE DE CRISTO MOUNTAINS...

CITY           SKY/WX    TMP DP  RH WIND       PRES   REMARKS
ALAMOSA        FAIR      46  37  71 CALM      30.19S
LA VETA PASS   FAIR      39  32  75 S8G17     30.25R
SAGUACHE       FAIR      46  34  61 CALM      30.21S
$$

COZ035-036-038>040-281600-
...NORTHERN COLORADO FRONT RANGE...

CITY           SKY/WX    TMP DP  RH WIND       PRES   REMARKS
DENVER INTL AP FAIR      59  40  49 S7        30.04R
DMNS CITY PARK   N/A     60  36  41 SE12      30.04S
AURORA         MOSUNNY   58  38  48 S3        30.06R
FRONT RANGE AP MOSUNNY   57  37  47 E6        30.05S
ERIE MUNI ARPT FAIR      60  41  50 S6        30.03R
BOULDER MUN AP FAIR      59  41  51 E3        30.03R
CENTENNIAL     FAIR      57  34  41 SE7       30.06R
BROOMFIELD     MOSUNNY   57  43  58 SE8       30.04S
FORT COLLINS   FAIR      57  43  58 SW7       30.03S
LONGMONT       FAIR      57  44  62 CALM      30.04S
$$

COZ041-046-047-076>085-087-088-281600-
...PIKES PEAK/PALMER DIVIDE AND SOUTHERN FOOTHILLS...

CITY           SKY/WX    TMP DP  RH WIND       PRES   REMARKS
COLO. SPRINGS  FAIR      59  34  39 VRB3      30.10R
A. F. ACADEMY  FAIR      57  32  38 E2        30.09R
SCHRIEVER AFB  NOT AVBL
ELLICOTT       FAIR     N/A N/A N/A CALM      30.08R
FALCON         FAIR      57  32  38 MISG      30.12S
FORT CARSON    FAIR      58  38  48 VRB1      30.08R
LIMON          FAIR      57  44  62 VRB3      30.05R
MONUMENT HILL  FAIR      52  32  46 NE3       30.12S
TRINIDAD       FAIR      60  37  42 W7        30.08R
$$

COZ042>045-048>051-090-091-281600-
...NORTHEAST COLORADO...

CITY           SKY/WX    TMP DP  RH WIND       PRES   REMARKS
GREELEY ARPT   FAIR      55  43  62 SW5       30.03S
AKRON          FAIR      57  47  69 W9        30.00R
BURLINGTON     FAIR      59  47  64 NW6       30.01R
WRAY           NOT AVBL
STERLING       FAIR      55  48  76 S6        29.98R
HOLYOKE        FAIR      63  48  59 W5        29.98R
FORT MORGAN    FAIR      57  44  63 W7        30.02R
$$

COZ086-089-092>099-281600-
...SOUTHEAST COLORADO...

CITY           SKY/WX    TMP DP  RH WIND       PRES   REMARKS
PUEBLO         FAIR      60  43  53 E3        30.04S
LA JUNTA       FAIR      59  47  64 NW6       30.03R
LAMAR          FAIR      62  47  57 NW7       30.01R
SPRINGFIELD      N/A     65  43  44 N8        30.04R
$$




USA.gov is the U.S. government's official web portal to all federal, state and local government web resources and services.